Location: Poughquag
(41.6090°N, 73.6820°W)
Time: 02:38:26
(UTC-04:00)

Envisat - Visible Passes

Search period start: 28 May 2017 00:00
Search period end: 07 June 2017 00:00
Orbit: 764 x 766 km, 98.2° (Epoch: 27 May)

Date Brightness Start Highest point End Pass type
(mag) Time Alt. Az. Time Alt. Az. Time Alt. Az.
28 May 3.3 21:05:55 10° S 21:10:57 70° WSW 21:16:03 10° NNW visible
29 May 5.4 22:10:14 10° SW 22:13:38 18° W 22:17:04 10° NW visible
30 May 4.2 21:31:56 10° SSW 21:36:40 39° W 21:41:25 10° NNW visible
31 May 3.1 20:54:48 10° SSE 20:59:53 88° WSW 21:05:00 10° NNW visible
01 Jun 5.1 21:58:31 10° SW 22:02:27 23° W 22:06:26 10° NW visible
02 Jun 3.8 21:20:38 10° S 21:25:32 50° W 21:30:29 10° NNW visible
03 Jun 5.6 22:26:11 10° WSW 22:28:22 13° W 22:30:34 10° WNW visible
04 Jun 4.8 21:46:57 10° SSW 21:51:18 28° W 21:55:41 10° NW visible
05 Jun 3.5 21:09:24 10° S 21:14:26 63° W 21:19:29 10° NNW visible
06 Jun 5.5 22:14:02 10° SW 22:17:09 16° W 22:20:18 10° NW visible
